User: anonymous
Location: Oshawa
(43.9000°N, 78.8670°W)
Time: 16:22:38
(UTC-04:00)
Language:

S-56A Canister/Altair - Orbit

View from above orbital plane
View from above orbital plane
View from above satellite
View from above satellite

Ground track
Ground track

The orbit data is extracted from the following two-line orbital elements,

1 00082U 61004B   14260.43598189 -.00000069  00000-0 -67117-5 0  7173
2 00082 038.8567 050.9308 1176416 032.0102 334.6865 12.25640935550099
Epoch (UTC): 17 September 2014 10:27:48
Eccentricity: 0.1176416
inclination: 38.8567°
perigee height: 633 km
apogee height: 2503 km
right ascension of ascending node: 50.9308°
argument of perigee: 32.0102°
revolutions per day: 12.25640935
mean anomaly at epoch: 334.6865°
orbit number at epoch: 55009

The dashed part of the orbit path shows where the satellite is in the earth's shadow,  

DLR